Regional Weather Roundup
Issued by NWS Sioux Falls, SD

Home | Current Version | Previous Version | Graphics & Text | Print | Product List | Glossary On
Versions: 1 2 3 4 5 6 7 8 9 10 11 12 13 14 15 16 17 18 19 20 21 22 23 24 25 26 27 28 29 30 31 32 33 34 35 36 37 38 39 40 41 42 43 44 45 46 47 48 49 50
000
ASUS43 KFSD 261002
RWRFSD

WEATHER ROUNDUP FOR SE SOUTH DAKOTA/SW MINNESOTA/NW IOWA
NATIONAL WEATHER SERVICE SIOUX FALLS SD
400 AM CST WED NOV 26 2014

NOTE: "FAIR" INDICATES FEW OR NO CLOUDS BELOW 12,000 FEET WITH NO
SIGNIFICANT WEATHER AND OR OBSTRUCTIONS TO VISIBILITY.


SDZ038>040-050-052>070-261100-
SOUTHEAST SOUTH DAKOTA

CITY           SKY/WX    TMP DP  RH WIND       PRES   REMARKS
CHAMBERLAIN    NOT AVBL
HURON          LGT SNOW  25  23  92 N21G33    29.99R FOG     WCI  11
MADISON        LGT SNOW  28  28 100 NE13      29.87R WCI  18
MITCHELL       CLOUDY    34  32  92 N20       29.93R WCI  23
SIOUX FALLS    LGT SNOW  30  28  92 NE7       29.87R FOG     WCI  23
WINNER         CLOUDY    26  22  84 NW30G43   30.06R WCI  10
YANKTON        CLOUDY    36  32  87 NW18G24   29.88R
$$

MNZ071-072-080-081-089-090-097-098-261100-
SOUTHWEST MINNESOTA

CITY           SKY/WX    TMP DP  RH WIND       PRES   REMARKS
FAIRMONT       CLOUDY    25  21  86 SE15      29.90S VSB 1   WCI  12
JACKSON        LGT SNOW  28  25  86 E8        29.89R WCI  20
LUVERNE        FLURRIES  30  28  93 NE6       29.87R WCI  24
MARSHALL       CLOUDY    27  21  80 NE13      29.95R WCI  16
MONTEVIDEO     LGT SNOW  25  23  93 E13       30.01R WCI  13
PIPESTONE      CLOUDY    27  27 100 E6        29.88R WCI  20
REDWOOD FALLS  LGT SNOW  25  22  88 NE8       29.97R VSB 3/4 WCI  16
TRACY          LGT SNOW  26  25  96 NE9       29.92R WCI  17
WINDOM         FLURRIES  27  25  93 CALM      29.90R
WORTHINGTON    CLOUDY    27  25  93 E8        29.87S WCI  18
$$

IAZ001>003-012>014-020>022-031-032-NEZ013-014-SDZ071-261100-
NORTHWEST IOWA

CITY           SKY/WX    TMP DP  RH WIND       PRES   REMARKS
DENISON        LGT SNOW  32  32 100 SE7       29.80F WCI  26
ESTHERVILLE    LGT SNOW  26  24  92 SE10      29.88S FOG     WCI  16
SIOUX CITY     CLOUDY    36  33  89 NW14      29.84S
SPENCER        LGT SNOW  28  25  88 SE9       29.86S FOG     WCI  19
$$

ABBREVIATIONS USED IN REMARKS
   TC - TEMPERATURE IN CELSIUS
  WCI - WIND CHILL INDEX
   HX - HEAT INDEX
  VSB - VISIBILITY



USA.gov is the U.S. government's official web portal to all federal, state and local government web resources and services.